When you browse on this site, cookies collect data to enhance your experience and personalize the content and advertising you see.
Visit our Privacy Policy to learn more. By continuing to use the site, you agree to this use of cookies and data.
  • In Hungary
  • List of Countries
  • For 7 days
  • Water Temperature
  • Satellite Maps
  • Weather Map
  • News
  • Weather Widgets
  • user-avatar
    Login

    Hourly Weather Karonga

    Today, 14 December, Friday

    Time Temperature Precipitation Wind Pressure Humidity
    00:00 +25°C° 0.1 mm 1 mps 720 mmHg 92%
    01:00 +25°C° 0.1 mm 1 mps 720 mmHg 93%
    02:00 +24°C° 0 mm 1 mps 720 mmHg 92%
    03:00 +24°C° 0.1 mm 1 mps 720 mmHg 92%
    04:00 +24°C° 0.1 mm 1 mps 720 mmHg 91%
    05:00 +24°C° 0.1 mm 1 mps 720 mmHg 90%
    06:00 +26°C° 0.1 mm 1 mps 720 mmHg 84%
    07:00 +27°C° 0.1 mm 1 mps 720 mmHg 78%
    08:00 +29°C° 0.1 mm 1 mps 721 mmHg 72%
    09:00 +30°C° 0.2 mm 1 mps 720 mmHg 69%
    10:00 +32°C° 0.2 mm 2 mps 720 mmHg 66%
    11:00 +34°C° 0.2 mm 2 mps 719 mmHg 62%
    12:00 +34°C° 0.5 mm 2 mps 719 mmHg 62%
    13:00 +34°C° 0.5 mm 3 mps 718 mmHg 61%
    14:00 +35°C° 0.5 mm 3 mps 717 mmHg 61%
    15:00 +33°C° 0.7 mm 3 mps 717 mmHg 65%
    16:00 +31°C° 0.7 mm 3 mps 717 mmHg 70%
    17:00 +30°C° 0.7 mm 3 mps 717 mmHg 75%
    18:00 +29°C° 0.4 mm 3 mps 717 mmHg 78%
    19:00 +28°C° 0.4 mm 2 mps 718 mmHg 82%
    20:00 +26°C° 0.4 mm 2 mps 718 mmHg 85%
    21:00 +26°C° 1.2 mm 2 mps 719 mmHg 86%
    22:00 +26°C° 1.2 mm 2 mps 719 mmHg 88%
    23:00 +26°C° 1.2 mm 2 mps 719 mmHg 89%

    Tomorrow, 15 December, Saturday

    Time Temperature Precipitation Wind Pressure Humidity
    00:00 +26°C° 0.8 mm 2 mps 719 mmHg 90%
    01:00 +25°C° 0.8 mm 3 mps 719 mmHg 91%
    02:00 +25°C° 0.8 mm 3 mps 718 mmHg 92%
    03:00 +25°C° 0.3 mm 2 mps 718 mmHg 93%
    04:00 +25°C° 0.3 mm 2 mps 719 mmHg 93%
    05:00 +25°C° 0.3 mm 2 mps 719 mmHg 94%
    06:00 +26°C° 0.6 mm 2 mps 719 mmHg 91%
    07:00 +27°C° 0.6 mm 2 mps 720 mmHg 88%
    08:00 +28°C° 0.6 mm 2 mps 720 mmHg 85%
    09:00 +29°C° 0.3 mm 2 mps 720 mmHg 80%
    10:00 +30°C° 0.3 mm 2 mps 719 mmHg 75%
    11:00 +31°C° 0.3 mm 2 mps 719 mmHg 71%
    12:00 +32°C° 0.1 mm 2 mps 718 mmHg 67%
    13:00 +32°C° 0.1 mm 2 mps 718 mmHg 64%
    14:00 +34°C° 0.1 mm 3 mps 717 mmHg 61%
    15:00 +32°C° 0.1 mm 2 mps 717 mmHg 65%
    16:00 +31°C° 0.1 mm 2 mps 717 mmHg 69%
    17:00 +30°C° 0.1 mm 2 mps 716 mmHg 74%
    18:00 +29°C° 0.4 mm 2 mps 717 mmHg 78%
    19:00 +27°C° 0.4 mm 2 mps 718 mmHg 82%
    20:00 +26°C° 0.4 mm 2 mps 718 mmHg 86%
    21:00 +26°C° 0.9 mm 2 mps 719 mmHg 87%
    22:00 +26°C° 0.9 mm 2 mps 719 mmHg 88%
    23:00 +25°C° 0.9 mm 2 mps 719 mmHg 89%

    Day after tomorrow, 16 December, Sunday

    Time Temperature Precipitation Wind Pressure Humidity
    00:00 +25°C° 0.5 mm 2 mps 719 mmHg 90%
    01:00 +25°C° 0.5 mm 2 mps 718 mmHg 90%
    02:00 +25°C° 0.5 mm 2 mps 718 mmHg 91%
    03:00 +25°C° 0.3 mm 2 mps 718 mmHg 92%
    04:00 +25°C° 0.3 mm 2 mps 718 mmHg 92%
    05:00 +25°C° 0.3 mm 1 mps 719 mmHg 92%
    06:00 +26°C° 0.2 mm 1 mps 719 mmHg 89%
    07:00 +27°C° 0.2 mm 1 mps 719 mmHg 86%
    08:00 +28°C° 0.2 mm 1 mps 720 mmHg 83%
    09:00 +29°C° 0.5 mm 1 mps 719 mmHg 79%
    10:00 +30°C° 0.5 mm 2 mps 719 mmHg 74%
    11:00 +31°C° 0.5 mm 2 mps 719 mmHg 70%
    12:00 +32°C° 0.3 mm 2 mps 718 mmHg 67%
    13:00 +32°C° 0.3 mm 2 mps 717 mmHg 65%
    14:00 +34°C° 0.3 mm 3 mps 716 mmHg 63%
    15:00 +32°C° 0.3 mm 2 mps 716 mmHg 67%
    16:00 +31°C° 0.3 mm 2 mps 716 mmHg 71%
    17:00 +30°C° 0.3 mm 2 mps 716 mmHg 75%
    18:00 +29°C° 0.3 mm 2 mps 716 mmHg 78%
    19:00 +28°C° 0.3 mm 2 mps 717 mmHg 82%
    20:00 +27°C° 0.3 mm 2 mps 718 mmHg 85%
    21:00 +26°C° 0.3 mm 2 mps 718 mmHg 84%
    22:00 +26°C° 0.3 mm 2 mps 718 mmHg 84%
    23:00 +26°C° 0.3 mm 2 mps 719 mmHg 84%

    17 December, Monday

    Time Temperature Precipitation Wind Pressure Humidity
    00:00 +26°C° 0.6 mm 2 mps 718 mmHg 84%
    01:00 +26°C° 0.6 mm 1 mps 718 mmHg 84%
    02:00 +25°C° 0.6 mm 1 mps 717 mmHg 84%
    03:00 +25°C° 0.5 mm 1 mps 717 mmHg 85%
    04:00 +25°C° 0.5 mm 1 mps 718 mmHg 85%
    05:00 +25°C° 0.5 mm 1 mps 718 mmHg 85%
    06:00 +26°C° 0.5 mm 1 mps 719 mmHg 83%
    07:00 +27°C° 0.5 mm 1 mps 719 mmHg 81%
    08:00 +26°C° 0.5 mm 0 mps 720 mmHg 78%
    09:00 +30°C° 0.3 mm 1 mps 719 mmHg 74%
    10:00 +31°C° 0.3 mm 1 mps 719 mmHg 70%
    11:00 +32°C° 0.3 mm 2 mps 718 mmHg 66%
    12:00 +32°C° 0.6 mm 2 mps 718 mmHg 68%
    13:00 +32°C° 0.6 mm 2 mps 717 mmHg 69%
    14:00 +32°C° 0.6 mm 2 mps 716 mmHg 70%
    15:00 +31°C° 0.9 mm 2 mps 716 mmHg 75%
    16:00 +30°C° 0.9 mm 2 mps 716 mmHg 79%
    17:00 +29°C° 0.9 mm 2 mps 716 mmHg 83%
    18:00 +28°C° 1.1 mm 2 mps 717 mmHg 86%
    19:00 +27°C° 1.1 mm 1 mps 718 mmHg 88%
    20:00 +26°C° 1.1 mm 1 mps 718 mmHg 90%
    21:00 +26°C° 1.1 mm 1 mps 718 mmHg 91%
    22:00 +26°C° 1.1 mm 1 mps 719 mmHg 92%
    23:00 +26°C° 1.1 mm 1 mps 719 mmHg 92%

    18 December, Tuesday

    Time Temperature Precipitation Wind Pressure Humidity
    00:00 +26°C° 1.7 mm 1 mps 718 mmHg 93%
    01:00 +26°C° 1.7 mm 1 mps 718 mmHg 93%
    02:00 +25°C° 1.7 mm 2 mps 717 mmHg 94%
    03:00 +25°C° 1 mm 2 mps 718 mmHg 94%
    04:00 +25°C° 1 mm 2 mps 718 mmHg 94%
    05:00 +25°C° 1 mm 1 mps 718 mmHg 95%
    06:00 +25°C° 1.1 mm 1 mps 719 mmHg 94%
    07:00 +26°C° 1.1 mm 1 mps 719 mmHg 93%
    08:00 +26°C° 1.1 mm 1 mps 720 mmHg 92%
    09:00 +27°C° 0.6 mm 1 mps 719 mmHg 88%
    10:00 +28°C° 0.6 mm 1 mps 719 mmHg 84%
    11:00 +29°C° 0.6 mm 1 mps 718 mmHg 81%
    12:00 +30°C° 0.3 mm 1 mps 718 mmHg 78%
    13:00 +30°C° 0.3 mm 1 mps 717 mmHg 76%
    14:00 +31°C° 0.3 mm 2 mps 716 mmHg 73%
    15:00 +30°C° 0.6 mm 2 mps 716 mmHg 77%
    16:00 +30°C° 0.6 mm 1 mps 716 mmHg 80%
    17:00 +29°C° 0.6 mm 1 mps 716 mmHg 83%
    18:00 +28°C° 0.8 mm 1 mps 717 mmHg 86%
    19:00 +27°C° 0.8 mm 1 mps 717 mmHg 88%
    20:00 +26°C° 0.8 mm 1 mps 718 mmHg 91%
    21:00 +26°C° 0.9 mm 1 mps 718 mmHg 91%
    22:00 +26°C° 0.9 mm 1 mps 718 mmHg 92%
    23:00 +26°C° 0.9 mm 1 mps 718 mmHg 92%

    19 December, Wednesday

    Time Temperature Precipitation Wind Pressure Humidity
    00:00 +26°C° 0.9 mm 1 mps 717 mmHg 93%
    01:00 +25°C° 0.9 mm 1 mps 717 mmHg 93%
    02:00 +25°C° 0.9 mm 1 mps 717 mmHg 93%
    03:00 +25°C° 0.8 mm 1 mps 717 mmHg 94%
    04:00 +25°C° 0.8 mm 1 mps 717 mmHg 94%
    05:00 +25°C° 0.8 mm 1 mps 718 mmHg 94%
    06:00 +26°C° 1.1 mm 1 mps 718 mmHg 93%
    07:00 +26°C° 1.1 mm 1 mps 718 mmHg 92%
    08:00 +27°C° 1.1 mm 1 mps 719 mmHg 90%
    09:00 +27°C° 1.3 mm 1 mps 718 mmHg 88%
    10:00 +28°C° 1.3 mm 1 mps 718 mmHg 86%
    11:00 +29°C° 1.3 mm 1 mps 717 mmHg 83%
    12:00 +29°C° 0.6 mm 1 mps 717 mmHg 81%
    13:00 +30°C° 0.6 mm 2 mps 716 mmHg 78%
    14:00 +31°C° 0.6 mm 2 mps 715 mmHg 75%
    15:00 +31°C° 0.7 mm 2 mps 715 mmHg 78%
    16:00 +30°C° 0.7 mm 1 mps 715 mmHg 81%
    17:00 +29°C° 0.7 mm 1 mps 714 mmHg 84%
    18:00 +29°C° 1.4 mm 1 mps 715 mmHg 86%
    19:00 +28°C° 1.4 mm 1 mps 716 mmHg 88%
    20:00 +27°C° 1.4 mm 1 mps 716 mmHg 90%
    21:00 +27°C° 2.3 mm 1 mps 717 mmHg 91%
    22:00 +26°C° 2.3 mm 1 mps 717 mmHg 92%
    23:00 +26°C° 2.3 mm 1 mps 717 mmHg 92%
    Show more